[[{"header":{"parameterUnit":"m.s-1","parameterCategory":1,"la1":30.2991,"la2":30.254,"lo1":-89.0895,"lo2":-89.0444,"dy":0.0017,"dx":0.0017,"nx":28,"ny":28,"refTime":"2023-10-01T21:00:00:Z","depth":0,"parameterNumber":2,"parameterNumberName":"U-component_of_WINDS"},"data":[0,0,0,0,0,0,0,0,0,0,0,0,0,0,0,0,0,0,0,0,0,0,0,0,0,0,0,0,0,0,0,0,0,0,0,0,0,0,0,0,0,0,0,0,0,0,0,0,0,0,0,0,0,0,0,0,0,0,-2.5785,-2.5786,0,-2.5915,-2.5916,-2.5918,-2.5865,-2.5862,-2.5859,-2.5856,-2.5998,-2.6005,-2.6011,0,0,0,0,0,0,0,0,0,0,0,0,0,-2.5499,-2.5505,-2.5785,-2.5786,-2.5788,-2.5915,-2.5916,-2.5918,-2.5866,-2.5862,-2.5858,-2.5854,-2.5996,-2.6004,-2.6012,0,0,0,0,0,0,0,0,0,0,0,0,0,-2.5626,-2.5506,-2.5785,-2.5777,-2.5777,-2.5914,-2.5917,-2.5919,-2.5866,-2.5862,-2.5857,-2.5853,-2.5994,-2.6003,-2.6013,-2.6168,0,0,-2.6044,-2.6048,0,0,0,0,0,0,0,0,-2.5619,-2.5636,-2.5776,-2.5778,-2.5778,-2.5869,-2.5868,-2.6003,-2.5868,-2.5833,-2.5856,-2.585,-2.596,-2.5972,-2.6007,-2.6175,-2.6181,-2.6045,-2.6051,-2.6055,-2.6058,0,0,0,0,0,0,0,-2.561,-2.5631,-2.5837,-2.5778,-2.578,-2.577,-2.5782,-2.5893,-2.5921,-2.5836,-2.5832,-2.5848,-2.5959,-2.5998,-2.601,-2.6183,-2.6044,-2.6053,-2.606,-2.6063,-2.6487,-2.6492,0,0,0,0,0,0,-2.56,-2.5624,-2.5832,-2.584,-2.5685,-2.5778,-2.5793,-2.5845,-2.592,-2.5926,-2.5851,-2.5845,-2.5983,-2.5998,-2.6015,-2.6204,-2.6055,-2.6064,-2.607,-2.6482,-2.6488,-2.6494,0,0,0,0,0,0,-2.5594,-2.5619,-2.5827,-2.5731,-2.5757,-2.5788,-2.5847,-2.585,-2.5888,-2.5931,-2.5937,-2.5885,-2.598,-2.6001,-2.613,-2.6208,-2.6069,-2.6078,-2.6476,-2.6484,-2.6491,-2.6581,0,0,0,0,0,0,-2.5586,-2.5617,-2.5675,-2.5733,-2.5762,-2.5938,-2.5852,-2.5856,-2.5904,-2.5896,-2.5964,-2.5971,-2.5978,-2.6116,-2.614,-2.6219,-2.6086,-2.6469,-2.648,-2.6489,-2.6572,-2.6591,-2.6608,0,0,0,0,0,-2.5576,-2.5696,-2.5678,-2.5703,-2.5834,-2.5943,-2.596,-2.5962,-2.591,-2.597,-2.5998,-2.5969,-2.6194,-2.6129,-2.6157,-2.624,-2.6464,-2.6477,-2.6488,-2.6564,-2.6588,-2.6608,0,0,0,0,0,0,-2.565,-2.5704,-2.5684,-2.5826,-2.588,-2.5934,-2.6009,-2.5987,-2.6059,-2.605,-2.6052,-2.6068,-2.6202,-2.6233,-2.616,-2.6395,-2.6322,-2.634,-2.637,-2.6393,-2.6411,-2.6403,-2.6094,0,0,0,0,0,-2.5682,-2.5763,-2.5807,-2.5928,-2.5956,-2.5978,-2.6025,-2.6022,-2.6079,-2.6103,-2.614,-2.6199,-2.6284,-2.6339,-2.6419,-2.6574,-2.6591,-2.6645,-2.6663,-2.6678,-2.6695,-2.6782,-2.6808,-2.6533,-2.6533,-2.6533,0,0,-2.5751,-2.579,-2.5842,-2.5944,-2.5985,-2.6073,-2.5998,-2.6092,-2.6158,-2.6118,-2.6243,-2.6272,-2.6339,-2.6482,-2.6548,-2.6513,-2.6774,-2.6693,-2.6704,-2.6714,-2.6797,-2.6823,-2.6847,-2.6541,-2.6539,-2.6538,0,0,-2.5922,-2.5958,-2.6064,-2.6106,-2.6168,-2.6182,-2.6207,-2.6264,-2.6282,-2.6406,-2.6378,-2.6457,-2.6601,-2.665,-2.6694,-2.6882,-2.686,-2.6908,-2.7005,-2.709,-2.7112,-2.7131,-2.7202,-2.7227,-2.6923,-2.6924,-2.6924,0,-2.6001,-2.6128,-2.6122,-2.6219,-2.6267,-2.623,-2.634,-2.6381,-2.6468,-2.6503,-2.6461,-2.6642,-2.6684,-2.684,-2.6886,-2.6921,-2.6953,-2.6902,-2.7108,-2.7128,-2.7146,-2.7214,-2.724,-2.6929,-2.6929,-2.6928,-2.6928,0,-2.6224,-2.6312,-2.6391,-2.6472,-2.6528,-2.6631,-2.6643,-2.6701,-2.6692,-2.6711,-2.6839,-2.6887,-2.6977,-2.7013,-2.7007,-2.7169,-2.7146,-2.7106,-2.7034,-2.7178,-2.7242,-2.7267,-2.6938,-2.6936,-2.6934,-2.6932,0,0,-2.6449,-2.6523,-2.6553,-2.659,-2.6655,-2.6726,-2.6827,-2.6912,-2.6963,-2.7023,-2.7112,-2.7233,-2.7197,-2.7247,-2.7245,-2.7319,-2.7469,-2.7271,-2.7273,-2.731,-2.7656,-2.7689,-2.7718,-2.7453,-2.7457,-2.7461,-2.7652,0,-2.6627,-2.6803,-2.6801,-2.6966,-2.7049,-2.7015,-2.7104,-2.7155,-2.7175,-2.7251,-2.7274,-2.7362,-2.7305,-2.7335,-2.7407,-2.7436,-2.754,-2.7422,-2.754,-2.7544,-2.7528,-2.7751,-2.7786,-2.7963,-2.7676,-2.768,-2.7683,0,-2.686,-2.6925,-2.7098,-2.7151,-2.7186,-2.7266,-2.7345,-2.7416,-2.7474,-2.7484,-2.7538,-2.7525,-2.7632,-2.7553,-2.7703,-2.7623,-2.767,-2.7692,-2.7699,-2.7714,-2.7626,-2.7777,-2.802,-2.8048,-2.7722,-2.7719,-2.7716,0,-2.7012,-2.7143,-2.7263,-2.7295,-2.736,-2.7417,-2.7448,-2.7501,-2.7552,-2.7621,-2.7655,-2.7736,-2.7782,-2.7846,-2.7857,-2.7797,-2.8009,-2.793,-2.8024,-2.8024,-2.8074,-2.8072,-2.8333,-2.8097,-2.8097,-2.8096,-2.8095,0,-2.7214,-2.7323,-2.7332,-2.7407,-2.7528,-2.7524,-2.7644,-2.767,-2.7717,-2.7799,-2.7773,-2.7851,-2.7857,-2.7938,-2.7947,-2.8072,-2.8092,-2.8106,-2.8108,-2.8111,-2.811,-2.8146,-2.8135,-2.8103,-2.8102,-2.81,-2.8099,0,-2.7407,-2.7417,-2.7546,-2.7595,-2.761,-2.7698,-2.7741,-2.7814,-2.7829,-2.7933,-2.7958,-2.7984,-2.8078,-2.8093,-2.8204,-2.821,-2.8361,-2.8348,-2.8341,-2.8341,-2.8435,-2.8428,-2.8733,-2.8774,-2.8507,-2.851,-2.8512,0,-2.7537,-2.7619,-2.7676,-2.7727,-2.776,-2.7842,-2.7894,-2.7893,-2.7948,-2.802,-2.8086,-2.8176,-2.8249,-2.8401,-2.8433,-2.8518,-2.851,-2.861,-2.8523,-2.8524,-2.8517,-2.8514,-2.8524,-2.8629,-2.8632,-2.8634,-2.8636,0,-2.777,-2.7771,-2.7844,-2.792,-2.7981,-2.8042,-2.8099,-2.8143,-2.815,-2.8214,-2.8307,-2.8363,-2.8475,-2.8567,-2.8651,-2.8686,-2.8665,-2.8662,-2.869,-2.8696,-2.869,-2.8699,-2.8392,-2.8657,-2.8655,-2.8653,-2.8652,-2.8651,-2.7939,-2.801,-2.8062,-2.8145,-2.8187,-2.824,-2.8312,-2.8335,-2.8412,-2.8501,-2.8496,-2.8601,-2.8658,-2.8768,-2.8808,-2.8892,-2.8861,-2.8899,-2.8909,-2.892,-2.8931,-2.8672,-2.8907,-2.8907,-2.8906,-2.8906,-2.8905,0,-2.8174,-2.8204,-2.828,-2.8359,-2.8426,-2.8393,-2.8455,-2.8514,-2.8605,-2.8658,-2.8729,-2.8838,-2.8927,-2.8964,-2.9052,-2.9112,-2.9105,-2.9136,-2.9134,-2.9143,-2.8953,-2.8922,-2.9141,-2.9141,-2.9141,-2.914,-2.914,-2.914,-2.8304,-2.8425,-2.8431,-2.8573,-2.8603,-2.8703,-2.8741,-2.8792,-2.8835,-2.8957,-2.9029,-2.905,-2.9099,-2.919,-2.9271,-2.928,-2.9316,-2.9352,-2.9357,-2.918,-2.9156,-2.9134,-2.9106,-2.9359,-2.9359,-2.9541,-2.9543,-2.9544]},{"header":{"parameterUnit":"m.s-1","parameterCategory":1,"la1":30.2991,"la2":30.254,"lo1":-89.0895,"lo2":-89.0444,"dy":0.0017,"dx":0.0017,"nx":28,"ny":28,"refTime":"2023-10-01T21:00:00:Z","depth":0,"parameterNumber":3,"parameterNumberName":"V-component_of_WINDS"},"data":[0,0,0,0,0,0,0,0,0,0,0,0,0,0,0,0,0,0,0,0,0,0,0,0,0,0,0,0,0,0,0,0,0,0,0,0,0,0,0,0,0,0,0,0,0,0,0,0,0,0,0,0,0,0,0,0,0,0,-1.1887,-1.1888,0,-1.202,-1.2022,-1.2023,-1.2092,-1.2092,-1.2092,-1.2092,-1.2227,-1.2231,-1.2234,0,0,0,0,0,0,0,0,0,0,0,0,0,-1.1692,-1.1695,-1.1887,-1.1889,-1.189,-1.202,-1.2022,-1.2023,-1.2092,-1.2092,-1.2092,-1.2092,-1.2226,-1.223,-1.2234,0,0,0,0,0,0,0,0,0,0,0,0,0,-1.1796,-1.1696,-1.1887,-1.194,-1.1946,-1.2019,-1.2022,-1.2024,-1.2092,-1.2092,-1.2092,-1.2092,-1.2225,-1.223,-1.2235,-1.2265,0,0,-1.2251,-1.2253,0,0,0,0,0,0,0,0,-1.179,-1.1803,-1.1931,-1.1936,-1.1943,-1.204,-1.2002,-1.2105,-1.2092,-1.2036,-1.2092,-1.2092,-1.2165,-1.2175,-1.2199,-1.2271,-1.2277,-1.2252,-1.2255,-1.2257,-1.2258,0,0,0,0,0,0,0,-1.1782,-1.1797,-1.194,-1.1932,-1.194,-1.1957,-1.1972,-1.2022,-1.2098,-1.2041,-1.2047,-1.2061,-1.2168,-1.2194,-1.2203,-1.2279,-1.2251,-1.2256,-1.2259,-1.2261,-1.2384,-1.2384,0,0,0,0,0,0,-1.1767,-1.1791,-1.1935,-1.1944,-1.1865,-1.1961,-1.1977,-1.2009,-1.2098,-1.2112,-1.2061,-1.2064,-1.2185,-1.2197,-1.2208,-1.225,-1.2257,-1.2262,-1.2265,-1.2384,-1.2384,-1.2384,0,0,0,0,0,0,-1.1762,-1.1779,-1.193,-1.1869,-1.1889,-1.1964,-1.1998,-1.2011,-1.2037,-1.2113,-1.2127,-1.2074,-1.2186,-1.2201,-1.2251,-1.2256,-1.2264,-1.2269,-1.2384,-1.2384,-1.2384,-1.2334,0,0,0,0,0,0,-1.1756,-1.1777,-1.1789,-1.1869,-1.1892,-1.197,-1.1999,-1.2014,-1.2046,-1.2051,-1.2128,-1.2141,-1.2187,-1.2242,-1.2256,-1.2263,-1.2273,-1.2384,-1.2384,-1.2384,-1.2335,-1.2332,-1.2329,0,0,0,0,0,-1.1749,-1.1769,-1.1789,-1.1806,-1.1909,-1.197,-1.1984,-1.2036,-1.2046,-1.2059,-1.2108,-1.2139,-1.2253,-1.2247,-1.2263,-1.2272,-1.2383,-1.2384,-1.2384,-1.2336,-1.2333,-1.2329,0,0,0,0,0,0,-1.1688,-1.178,-1.1804,-1.185,-1.1902,-1.1982,-1.2,-1.203,-1.208,-1.2083,-1.2145,-1.2162,-1.2207,-1.2244,-1.2236,-1.2306,-1.2321,-1.2325,-1.228,-1.2277,-1.2274,-1.2264,-1.2278,0,0,0,0,0,-1.1679,-1.1722,-1.1801,-1.1834,-1.1859,-1.1925,-1.1953,-1.1989,-1.2045,-1.2067,-1.212,-1.2173,-1.2221,-1.2251,-1.2299,-1.2341,-1.2359,-1.2355,-1.2352,-1.2349,-1.2351,-1.2377,-1.2377,-1.2385,-1.2385,-1.2385,0,0,-1.1663,-1.1719,-1.1742,-1.1823,-1.1867,-1.191,-1.1943,-1.1986,-1.2018,-1.2074,-1.2125,-1.2165,-1.2228,-1.2274,-1.2297,-1.2307,-1.2353,-1.2349,-1.2347,-1.2351,-1.2378,-1.2377,-1.2376,-1.2385,-1.2385,-1.2385,0,0,-1.1655,-1.1701,-1.1735,-1.1779,-1.1846,-1.189,-1.1897,-1.1973,-1.2002,-1.2054,-1.2098,-1.2137,-1.2218,-1.2261,-1.2294,-1.2303,-1.2334,-1.2317,-1.2302,-1.2327,-1.2326,-1.2326,-1.233,-1.2331,-1.2319,-1.2319,-1.2319,0,-1.1626,-1.1692,-1.1748,-1.1789,-1.1824,-1.1877,-1.1911,-1.1951,-1.203,-1.2053,-1.2063,-1.2166,-1.2213,-1.227,-1.2273,-1.2297,-1.2309,-1.2309,-1.2322,-1.2322,-1.2323,-1.2327,-1.2329,-1.2317,-1.2317,-1.2317,-1.2317,0,-1.1653,-1.1698,-1.1717,-1.1793,-1.183,-1.1867,-1.1929,-1.1959,-1.1992,-1.2035,-1.2088,-1.2145,-1.2207,-1.2223,-1.2255,-1.2286,-1.229,-1.231,-1.2326,-1.2319,-1.2324,-1.2326,-1.2313,-1.2314,-1.2315,-1.2315,0,0,-1.1609,-1.1716,-1.1722,-1.1758,-1.1836,-1.1872,-1.1912,-1.1973,-1.1998,-1.2051,-1.2086,-1.2154,-1.2174,-1.2211,-1.2249,-1.227,-1.2275,-1.2288,-1.229,-1.2284,-1.2313,-1.2298,-1.2299,-1.2296,-1.2296,-1.2297,-1.2308,0,-1.1613,-1.1688,-1.174,-1.1794,-1.1837,-1.1889,-1.1924,-1.1975,-1.2017,-1.2059,-1.2105,-1.2152,-1.2174,-1.2197,-1.222,-1.2269,-1.2282,-1.2269,-1.233,-1.2331,-1.2313,-1.2302,-1.2286,-1.2294,-1.2311,-1.2311,-1.2311,0,-1.1627,-1.1679,-1.1737,-1.1812,-1.1832,-1.1863,-1.1923,-1.1963,-1.2023,-1.2051,-1.2093,-1.2132,-1.2177,-1.219,-1.2253,-1.2243,-1.2271,-1.2299,-1.23,-1.2308,-1.2321,-1.231,-1.2298,-1.2299,-1.2315,-1.2315,-1.2315,0,-1.1589,-1.1674,-1.1721,-1.175,-1.1838,-1.1858,-1.1896,-1.1956,-1.1989,-1.2042,-1.2065,-1.2121,-1.2152,-1.2196,-1.2249,-1.2253,-1.2307,-1.2324,-1.2333,-1.2331,-1.2342,-1.234,-1.2334,-1.2358,-1.2358,-1.2358,-1.2358,0,-1.1588,-1.1622,-1.1706,-1.1734,-1.1774,-1.1834,-1.1872,-1.1914,-1.1967,-1.2005,-1.2053,-1.2087,-1.2156,-1.2199,-1.2241,-1.2287,-1.2301,-1.2325,-1.2336,-1.2321,-1.2318,-1.2341,-1.2342,-1.2359,-1.2359,-1.2359,-1.2359,0,-1.1553,-1.1611,-1.1665,-1.1744,-1.1765,-1.1791,-1.1859,-1.1889,-1.1933,-1.1981,-1.1995,-1.2065,-1.2118,-1.2175,-1.2248,-1.2276,-1.232,-1.2335,-1.23,-1.2306,-1.2312,-1.2311,-1.2321,-1.2325,-1.2345,-1.2345,-1.2345,0,-1.1549,-1.1576,-1.1659,-1.1688,-1.1725,-1.1771,-1.1805,-1.1865,-1.1899,-1.1971,-1.1992,-1.2049,-1.2098,-1.218,-1.2237,-1.2293,-1.231,-1.231,-1.2319,-1.2304,-1.2311,-1.2309,-1.2313,-1.2307,-1.2306,-1.2306,-1.2306,0,-1.1535,-1.1562,-1.161,-1.1669,-1.1709,-1.1758,-1.1808,-1.1829,-1.1899,-1.1935,-1.1991,-1.2028,-1.2103,-1.2159,-1.2222,-1.2261,-1.2295,-1.2302,-1.2307,-1.2293,-1.2271,-1.2284,-1.2293,-1.2302,-1.2302,-1.2302,-1.2303,-1.2303,-1.1516,-1.1543,-1.1606,-1.1658,-1.1703,-1.1749,-1.1782,-1.183,-1.1878,-1.1943,-1.1976,-1.2031,-1.2091,-1.218,-1.2218,-1.2262,-1.2273,-1.228,-1.2282,-1.2283,-1.2279,-1.2264,-1.2274,-1.2274,-1.2274,-1.2274,-1.2275,0,-1.1505,-1.1548,-1.1595,-1.1665,-1.1707,-1.1735,-1.1793,-1.1826,-1.1874,-1.1928,-1.1975,-1.2039,-1.2094,-1.2156,-1.2215,-1.2239,-1.2256,-1.2252,-1.2251,-1.226,-1.2266,-1.2256,-1.2237,-1.2237,-1.2237,-1.2237,-1.2237,-1.2237,-1.1504,-1.1552,-1.1587,-1.1658,-1.1701,-1.1756,-1.1786,-1.183,-1.1873,-1.1943,-1.1989,-1.2029,-1.2086,-1.215,-1.2202,-1.2219,-1.2238,-1.223,-1.2251,-1.2256,-1.2259,-1.2262,-1.2253,-1.2234,-1.2234,-1.2242,-1.2242,-1.2242]}]]